Salisbury, MD

6:48 PM EST on January 17, 2017 (GMT -0500)
Salisbury-Ocean City Wicomico Regional

Weather History for KSBY - January, 2013

Change the Weather History Date:

Thursday, January 10, 2013

  Actual Average Record
Temperature  
Mean Temperature 45 °F 35 °F  
Max Temperature 55 °F 44 °F 69 °F (1930)
Min Temperature 35 °F 27 °F -2 °F (1958)
Degree Days  
Heating Degree Days 20 30  
Month to date heating degree days 243 295  
Since 1 July heating degree days 1542 1919  
Cooling Degree Days 0 0  
Month to date cooling degree days 0 0  
Year to date cooling degree days 0 0  
Moisture  
Dew Point 29 °F    
Average Humidity 54    
Maximum Humidity 76    
Minimum Humidity 32    
Precipitation  
Precipitation 0.00 in 0.11 in 1.23 in (1977)
Month to date precipitation T 1.10  
Year to date precipitation T 1.10  
Snow  
Snow 0.00 in 0.00 in 4.00 in (1962)
Month to date snowfall T 0.6  
Since 1 July snowfall T 2.4  
Snow Depth 0.00 in    
Sea Level Pressure  
Sea Level Pressure 30.50 in    
Wind  
Wind Speed 5 mph (NW)    
Max Wind Speed 15 mph    
Max Gust Speed 21 mph    
Visibility 10 miles    
Events      
T = Trace of Precipitation, MM = Missing Value Source: NWS Daily Summary

Daily Weather History Graph

Daily Weather History Graph

Search for Another Location

Airport or City:

Trip Planner

Search our weather history database for the weather conditions in past years. The results will help you decide how hot, cold, wet, or windy it might be!

Date:

Astronomy

Jan. 10, 2013 Rise Set
Actual Time 7:18 AM EST 5:00 PM EST
Civil Twilight 6:49 AM EST 5:29 PM EST
Nautical Twilight 6:16 AM EST 6:02 PM EST
Astronomical Twilight 5:45 AM EST 6:34 PM EST
Moon 5:56 AM EST (1/10) 4:05 PM EST (1/10)
Length of Visible Light 10h 40m
Length of Day
9h 41m
Waning Crescent, 2% of the Moon is Illuminated
Jan 10
Waning Crescent
Jan 11
New
Jan 18
First Quarter
Jan 26
Full
Feb 3
Last Quarter

Hourly Weather History & Observations

Time (EST) Temp. Windchill Dew Point Humidity Pressure Visibility Wind Dir Wind Speed Gust Speed Precip Events Conditions
12:54 AM 50.0 °F - 35.1 °F 57% 30.38 in 10.0 mi NW 6.9 mph - N/A   Clear
1:54 AM 48.0 °F - 32.0 °F 54% 30.40 in 10.0 mi NW 4.6 mph - N/A   Clear
2:54 AM 52.0 °F - 26.1 °F 37% 30.43 in 10.0 mi NW 11.5 mph - N/A   Clear
3:54 AM 50.0 °F - 26.1 °F 39% 30.43 in 10.0 mi WNW 4.6 mph - N/A   Clear
4:54 AM 48.0 °F - 27.0 °F 44% 30.45 in 10.0 mi WNW 5.8 mph - N/A   Clear
5:54 AM 46.0 °F 43.9 °F 27.0 °F 47% 30.46 in 10.0 mi WNW 4.6 mph - N/A   Clear
6:54 AM 42.1 °F 40.2 °F 27.0 °F 55% 30.49 in 10.0 mi NW 3.5 mph - N/A   Clear
7:54 AM 37.0 °F 34.5 °F 28.9 °F 73% 30.53 in 10.0 mi West 3.5 mph - N/A   Clear
10:54 AM 52.0 °F - 26.1 °F 37% 30.57 in 10.0 mi NW 10.4 mph - N/A   Clear
11:54 AM 53.1 °F - 25.0 °F 34% 30.55 in 10.0 mi NW 11.5 mph 16.1 mph N/A   Clear
1:54 PM 53.1 °F - 26.1 °F 35% 30.52 in 10.0 mi WNW 9.2 mph - N/A   Clear
2:54 PM 52.0 °F - 28.0 °F 40% 30.52 in 10.0 mi WNW 5.8 mph - N/A   Clear
3:54 PM 52.0 °F - 28.0 °F 40% 30.53 in 10.0 mi NNW 5.8 mph - N/A   Clear
4:54 PM 48.9 °F - 27.0 °F 43% 30.52 in 10.0 mi North 4.6 mph - N/A   Clear
5:54 PM 46.0 °F - 28.9 °F 51% 30.52 in 10.0 mi Calm Calm - N/A   Clear
6:54 PM 41.0 °F - 30.9 °F 67% 30.52 in 10.0 mi Calm Calm - N/A   Clear
7:54 PM 41.0 °F - 30.9 °F 67% 30.53 in 10.0 mi Calm Calm - N/A   Clear
8:54 PM 39.9 °F - 30.9 °F 70% 30.52 in 10.0 mi Calm Calm - N/A   Clear
9:54 PM 37.9 °F - 30.0 °F 73% 30.53 in 10.0 mi Calm Calm - N/A   Clear
10:54 PM 37.9 °F - 30.9 °F 76% 30.53 in 10.0 mi Calm Calm - N/A   Clear
11:54 PM 42.1 °F 40.2 °F 30.9 °F 65% 30.52 in 10.0 mi NE 3.5 mph - N/A   Clear